This is the latest recevied weather packets stored in our database for station/object KF7U. If no packets are shown the sender has not sent any weather packets the latest 10 day(s).
| Time | Temp. | Humidity | Pressure | Rain* | Wind** | Luminosity | Snow |
|---|---|---|---|---|---|---|---|
| 1778029055 | 22.78° C | 28% | 1008.5 hPa | 0 mm | - | 103 W/m² | - |
| 1778028754 | 22.78° C | 29% | 1008.5 hPa | 0 mm | - | 127 W/m² | - |
| 1778028455 | 22.78° C | 28% | 1008.5 hPa | 0 mm | - | 130 W/m² | - |
| 1778028154 | 23.33° C | 28% | 1008.1 hPa | 0 mm | - | 134 W/m² | - |
| 1778027855 | 22.78° C | 28% | 1008.1 hPa | 0 mm | - | 147 W/m² | - |
| 1778027555 | 23.33° C | 29% | 1008.1 hPa | 0 mm | - | 147 W/m² | - |
| 1778027255 | 23.33° C | 28% | 1008.1 hPa | 0 mm | - | 156 W/m² | - |
| 1778026954 | 23.89° C | 27% | 1008.1 hPa | 0 mm | - | 189 W/m² | - |
| 1778026654 | 23.89° C | 27% | 1008.1 hPa | 0 mm | - | 238 W/m² | - |
| 1778026355 | 23.89° C | 27% | 1008.1 hPa | 0 mm | - | 219 W/m² | - |
| 1778026055 | 24.44° C | 26% | 1008.1 hPa | 0 mm | - | 192 W/m² | - |
| 1778025755 | 24.44° C | 26% | 1008.1 hPa | 0 mm | - | 317 W/m² | - |
| 1778025455 | 24.44° C | 27% | 1008.1 hPa | 0 mm | - | 525 W/m² | - |
| 1778025157 | 24.44° C | 27% | 1008.1 hPa | 0 mm | - | 549 W/m² | - |
| 1778024855 | 24.44° C | 28% | 1008.1 hPa | 0 mm | - | 673 W/m² | - |
| 1778024255 | 25° C | 27% | 1007.8 hPa | 0 mm | - | 673 W/m² | - |
| 1778023955 | 25° C | 27% | 1007.8 hPa | 0 mm | - | 653 W/m² | - |
| 1778023654 | 25° C | 27% | 1007.8 hPa | 0 mm | - | 642 W/m² | - |
| 1778023355 | 25° C | 27% | 1008.1 hPa | 0 mm | - | 598 W/m² | - |
| 1778023055 | 24.44° C | 27% | 1007.8 hPa | 0 mm | - | 655 W/m² | - |
| 1778022755 | 23.89° C | 28% | 1007.8 hPa | 0 mm | - | 664 W/m² | - |
| 1778022455 | 23.89° C | 28% | 1007.8 hPa | 0 mm | - | 169 W/m² | - |
| 1778022154 | 24.44° C | 27% | 1007.8 hPa | 0 mm | - | 236 W/m² | - |
| 1778021854 | 24.44° C | 28% | 1008.1 hPa | 0 mm | - | 756 W/m² | - |
| 1778021555 | 24.44° C | 28% | 1008.1 hPa | 0 mm | - | 252 W/m² | - |
* Rain latest hour (hover to see other rain measurements)
** Current wind speed in m/s (hover to see current wind gust speed)